Year,Month,Day,Hour,Minute,Value (Times are PST for temperature in C)
2010,03,22,07,28,3.40
2010,03,22,07,29,3.40
2010,03,22,07,30,3.40
2010,03,22,07,31,3.40
2010,03,22,07,32,3.40
2010,03,22,07,33,3.40
2010,03,22,07,34,3.40
2010,03,22,07,35,3.40
2010,03,22,07,36,3.40
2010,03,22,07,37,3.50
2010,03,22,07,38,3.50
2010,03,22,07,39,3.50
2010,03,22,07,40,3.50
2010,03,22,07,41,3.50
2010,03,22,07,42,3.50
2010,03,22,07,43,3.50
2010,03,22,07,44,3.50
2010,03,22,07,45,3.60
2010,03,22,07,46,3.60
2010,03,22,07,47,3.60
2010,03,22,07,48,3.60
2010,03,22,07,49,3.60
2010,03,22,07,50,3.70
2010,03,22,07,51,3.70
2010,03,22,07,52,3.70
2010,03,22,07,53,3.70
2010,03,22,07,54,3.80
2010,03,22,07,55,3.80
2010,03,22,07,56,3.80
2010,03,22,07,57,3.80
2010,03,22,07,58,3.80
2010,03,22,07,59,3.80
2010,03,22,08,00,3.90
2010,03,22,08,01,3.90
2010,03,22,08,02,4.00
2010,03,22,08,03,4.00
2010,03,22,08,04,4.10
2010,03,22,08,05,4.20
2010,03,22,08,06,4.20
2010,03,22,08,07,4.30
2010,03,22,08,08,4.40
2010,03,22,08,09,4.50
2010,03,22,08,10,4.60
2010,03,22,08,11,4.70
2010,03,22,08,12,4.80
2010,03,22,08,13,5.00
2010,03,22,08,14,5.10
2010,03,22,08,15,5.20
2010,03,22,08,16,5.30
2010,03,22,08,17,5.40
2010,03,22,08,18,5.50
2010,03,22,08,19,5.60
2010,03,22,08,20,5.70
2010,03,22,08,21,5.80
2010,03,22,08,22,5.90
2010,03,22,08,23,5.90
2010,03,22,08,24,6.00
2010,03,22,08,25,6.00
2010,03,22,08,26,6.10
2010,03,22,08,27,6.10
2010,03,22,08,28,6.20
2010,03,22,08,29,6.20
2010,03,22,08,30,6.20
2010,03,22,08,31,6.20
2010,03,22,08,32,6.20
2010,03,22,08,33,6.20
2010,03,22,08,34,6.20
2010,03,22,08,35,6.20
2010,03,22,08,36,6.30
2010,03,22,08,37,6.30
2010,03,22,08,38,6.30
2010,03,22,08,39,6.30
2010,03,22,08,40,6.30
2010,03,22,08,41,6.40
2010,03,22,08,42,6.40
2010,03,22,08,43,6.40
2010,03,22,08,44,6.40
2010,03,22,08,45,6.40
2010,03,22,08,46,6.40
2010,03,22,08,47,6.40
2010,03,22,08,48,6.40
2010,03,22,08,49,6.40
2010,03,22,08,50,6.40
2010,03,22,08,51,6.40
2010,03,22,08,52,6.40
2010,03,22,08,53,6.40
2010,03,22,08,54,6.50
2010,03,22,08,55,6.50
2010,03,22,08,56,6.50
2010,03,22,08,57,6.50
2010,03,22,08,58,6.60
2010,03,22,08,59,6.60
2010,03,22,09,00,6.60
2010,03,22,09,01,6.60
2010,03,22,09,02,6.60
2010,03,22,09,03,6.70
2010,03,22,09,04,6.70
2010,03,22,09,05,6.80
2010,03,22,09,06,6.80
2010,03,22,09,07,6.90
2010,03,22,09,08,6.90
2010,03,22,09,09,7.00
2010,03,22,09,10,7.10
2010,03,22,09,11,7.10
2010,03,22,09,12,7.20
2010,03,22,09,13,7.30
2010,03,22,09,14,7.40
2010,03,22,09,15,7.50
2010,03,22,09,16,7.60
2010,03,22,09,17,7.70
2010,03,22,09,18,7.80
2010,03,22,09,19,7.80
2010,03,22,09,20,7.80
2010,03,22,09,21,7.80
2010,03,22,09,22,7.80
2010,03,22,09,23,7.90
2010,03,22,09,24,7.90
2010,03,22,09,25,8.00
2010,03,22,09,26,8.10
2010,03,22,09,27,8.20
2010,03,22,09,28,8.30
2010,03,22,09,30,8.50
2010,03,22,09,31,8.60
2010,03,22,09,32,8.70
2010,03,22,09,33,8.80
2010,03,22,09,34,8.80
2010,03,22,09,35,8.70
2010,03,22,09,36,8.70
2010,03,22,09,37,8.70
2010,03,22,09,38,8.70
2010,03,22,09,39,8.60
2010,03,22,09,40,8.60
2010,03,22,09,41,8.50
2010,03,22,09,42,8.50
2010,03,22,09,43,8.60
2010,03,22,09,44,8.60
2010,03,22,09,45,8.60
2010,03,22,09,46,8.60
2010,03,22,09,47,8.60
2010,03,22,09,48,8.60
2010,03,22,09,49,8.60
2010,03,22,09,50,8.60
2010,03,22,09,51,8.60
2010,03,22,09,52,8.60
2010,03,22,09,53,8.60
2010,03,22,09,54,8.60
2010,03,22,09,55,8.70
2010,03,22,09,56,8.70
2010,03,22,09,57,8.70
2010,03,22,09,58,8.80
2010,03,22,09,59,8.80
2010,03,22,10,00,8.80
2010,03,22,10,01,8.70
2010,03,22,10,02,8.70
2010,03,22,10,03,8.70
2010,03,22,10,04,8.80
2010,03,22,10,05,8.80
2010,03,22,10,06,8.90
2010,03,22,10,07,9.00
2010,03,22,10,08,9.10
2010,03,22,10,09,9.10
2010,03,22,10,10,9.20
2010,03,22,10,11,9.30
2010,03,22,10,12,9.20
2010,03,22,10,13,9.20
2010,03,22,10,14,9.20
2010,03,22,10,15,9.20
2010,03,22,10,16,9.30
2010,03,22,10,17,9.30
2010,03,22,10,18,9.20
2010,03,22,10,19,9.20
2010,03,22,10,20,9.10
2010,03,22,10,21,9.10
2010,03,22,10,22,9.10
2010,03,22,10,23,9.10
2010,03,22,10,24,9.00
2010,03,22,10,25,8.90
2010,03,22,10,26,8.90
2010,03,22,10,27,8.90
2010,03,22,10,28,8.80
2010,03,22,10,29,8.80
2010,03,22,10,30,8.80
2010,03,22,10,31,8.80
2010,03,22,10,32,8.80
2010,03,22,10,33,8.80
2010,03,22,10,34,8.80
2010,03,22,10,35,8.80
2010,03,22,10,36,8.80
2010,03,22,10,37,8.70
2010,03,22,10,38,8.70
2010,03,22,10,39,8.70
2010,03,22,10,40,8.70
2010,03,22,10,41,8.60
2010,03,22,10,42,8.60
2010,03,22,10,43,8.60
2010,03,22,10,44,8.50
2010,03,22,10,45,8.50
2010,03,22,10,46,8.60
2010,03,22,10,47,8.60
2010,03,22,10,48,8.60
2010,03,22,10,49,8.70
2010,03,22,10,50,8.70
2010,03,22,10,51,8.80
2010,03,22,10,52,8.80
2010,03,22,10,53,8.80
2010,03,22,10,54,8.80
2010,03,22,10,55,8.70
2010,03,22,10,56,8.50
2010,03,22,10,57,8.40
2010,03,22,10,58,8.30
2010,03,22,10,59,8.30
2010,03,22,11,00,8.20
2010,03,22,11,01,8.20
2010,03,22,11,02,8.10
2010,03,22,11,03,8.00
2010,03,22,11,04,8.00
2010,03,22,11,05,7.90
2010,03,22,11,06,7.90
2010,03,22,11,07,7.90
2010,03,22,11,08,7.90
2010,03,22,11,09,7.90
2010,03,22,11,10,8.00
2010,03,22,11,11,8.00
2010,03,22,11,12,8.10
2010,03,22,11,13,8.10
2010,03,22,11,14,8.20
2010,03,22,11,15,8.40
2010,03,22,11,16,8.50
2010,03,22,11,17,8.60
2010,03,22,11,18,8.60
2010,03,22,11,19,8.60
2010,03,22,11,20,8.60
2010,03,22,11,21,8.60
2010,03,22,11,22,8.70
2010,03,22,11,23,8.80
2010,03,22,11,24,8.80
2010,03,22,11,25,8.90
2010,03,22,11,26,9.00
2010,03,22,11,27,9.00
2010,03,22,11,28,8.90
2010,03,22,11,29,8.90
2010,03,22,11,30,8.90
2010,03,22,11,31,9.00
2010,03,22,11,32,9.00
2010,03,22,11,33,9.10
2010,03,22,11,34,9.20
2010,03,22,11,35,9.30
2010,03,22,11,36,9.30
2010,03,22,11,37,9.30
2010,03,22,11,38,9.40
2010,03,22,11,39,9.40
2010,03,22,11,40,9.30
2010,03,22,11,41,9.30
2010,03,22,11,42,9.40
2010,03,22,11,43,9.40
2010,03,22,11,44,9.40
2010,03,22,11,45,9.50
2010,03,22,11,46,9.60
2010,03,22,11,47,9.70
2010,03,22,11,48,9.70
2010,03,22,11,49,9.70
2010,03,22,11,50,9.70
2010,03,22,11,51,9.70
2010,03,22,11,52,9.80
2010,03,22,11,53,9.70
2010,03,22,11,54,9.60
2010,03,22,11,55,9.60
2010,03,22,11,56,9.60
2010,03,22,11,57,9.60
2010,03,22,11,58,9.60
2010,03,22,11,59,9.60
2010,03,22,12,00,9.60
2010,03,22,12,01,9.60
2010,03,22,12,02,9.60
2010,03,22,12,03,9.60
2010,03,22,12,04,9.60
2010,03,22,12,05,9.60
2010,03,22,12,06,9.60
2010,03,22,12,07,9.70
2010,03,22,12,08,9.70
2010,03,22,12,09,9.80
2010,03,22,12,10,9.90
2010,03,22,12,11,9.90
2010,03,22,12,12,9.90
2010,03,22,12,13,9.80
2010,03,22,12,14,9.80
2010,03,22,12,15,9.80
2010,03,22,12,16,9.80
2010,03,22,12,17,9.80
2010,03,22,12,18,9.80
2010,03,22,12,19,9.70
2010,03,22,12,20,9.70
2010,03,22,12,21,9.60
2010,03,22,12,22,9.70
2010,03,22,12,23,9.70
2010,03,22,12,24,9.70
2010,03,22,12,25,9.60
2010,03,22,12,26,9.60
2010,03,22,12,27,9.60
2010,03,22,12,28,9.50
2010,03,22,12,29,9.40
2010,03,22,12,30,9.40
2010,03,22,12,31,9.30
2010,03,22,12,32,9.30
2010,03,22,12,33,9.30
2010,03,22,12,34,9.40
2010,03,22,12,35,9.40
2010,03,22,12,36,9.40
2010,03,22,12,37,9.50
2010,03,22,12,38,9.50
2010,03,22,12,39,9.60
2010,03,22,12,40,9.70
2010,03,22,12,41,9.70
2010,03,22,12,42,9.70
2010,03,22,12,43,9.70
2010,03,22,12,44,9.70
2010,03,22,12,45,9.70
2010,03,22,12,46,9.70
2010,03,22,12,47,9.70
2010,03,22,12,48,9.70
2010,03,22,12,49,9.70
2010,03,22,12,50,9.80
2010,03,22,12,51,9.80
2010,03,22,12,52,9.80
2010,03,22,12,53,9.80
2010,03,22,12,54,9.90
2010,03,22,12,55,10.00
2010,03,22,12,56,10.10
2010,03,22,12,57,10.20
2010,03,22,12,58,10.30
2010,03,22,12,59,10.40
2010,03,22,13,00,10.50
2010,03,22,13,01,10.50
2010,03,22,13,02,10.60
2010,03,22,13,03,10.60
2010,03,22,13,04,10.60
2010,03,22,13,05,10.70
2010,03,22,13,06,10.70
2010,03,22,13,07,10.60
2010,03,22,13,08,10.60
2010,03,22,13,09,10.60
2010,03,22,13,10,10.60
2010,03,22,13,11,10.60
2010,03,22,13,12,10.60
2010,03,22,13,13,10.70
2010,03,22,13,14,10.70
2010,03,22,13,15,10.80
2010,03,22,13,16,10.80
2010,03,22,13,17,10.70
2010,03,22,13,18,10.70
2010,03,22,13,19,10.70
2010,03,22,13,20,10.70
2010,03,22,13,21,10.60
2010,03,22,13,22,10.60
2010,03,22,13,23,10.60
2010,03,22,13,24,10.70
2010,03,22,13,25,10.80
2010,03,22,13,26,10.80
2010,03,22,13,27,10.90
2010,03,22,13,28,10.90
2010,03,22,13,29,11.00
2010,03,22,13,30,11.10
2010,03,22,13,31,11.20
2010,03,22,13,32,11.20
2010,03,22,13,33,11.10
2010,03,22,13,34,11.00
2010,03,22,13,35,10.90
2010,03,22,13,36,10.80
2010,03,22,13,37,10.80
2010,03,22,13,38,10.80
2010,03,22,13,39,10.90
2010,03,22,13,40,10.90
2010,03,22,13,41,10.90
2010,03,22,13,42,11.00
2010,03,22,13,43,10.90
2010,03,22,13,44,10.90
2010,03,22,13,45,10.90
2010,03,22,13,46,10.90
2010,03,22,13,47,10.80
2010,03,22,13,48,10.70
2010,03,22,13,49,10.50
2010,03,22,13,50,10.30
2010,03,22,13,51,10.20
2010,03,22,13,52,10.10
2010,03,22,13,53,10.10
2010,03,22,13,54,10.10
2010,03,22,13,55,10.10
2010,03,22,13,56,10.10
2010,03,22,13,57,10.10
2010,03,22,13,58,10.10
2010,03,22,13,59,10.20
2010,03,22,14,00,10.20
2010,03,22,14,01,10.30
2010,03,22,14,02,10.40
2010,03,22,14,03,10.40
2010,03,22,14,04,10.50
2010,03,22,14,05,10.60
2010,03,22,14,06,10.70
2010,03,22,14,07,10.70
2010,03,22,14,08,10.80
2010,03,22,14,09,10.90
2010,03,22,14,10,11.00
2010,03,22,14,11,11.00
2010,03,22,14,12,11.10
2010,03,22,14,13,11.10
2010,03,22,14,14,11.10
2010,03,22,14,15,11.10
2010,03,22,14,16,11.00
2010,03,22,14,17,11.00
2010,03,22,14,18,11.00
2010,03,22,14,19,11.00
2010,03,22,14,20,11.00
2010,03,22,14,21,10.90
2010,03,22,14,22,10.90
2010,03,22,14,23,10.90
2010,03,22,14,24,10.80
2010,03,22,14,25,10.90
2010,03,22,14,26,10.90
2010,03,22,14,27,11.00
2010,03,22,14,28,11.00
2010,03,22,14,29,10.90
2010,03,22,14,30,10.80
2010,03,22,14,31,10.70
2010,03,22,14,32,10.70
2010,03,22,14,33,10.70
2010,03,22,14,34,10.70
2010,03,22,14,35,10.70
2010,03,22,14,36,10.70
2010,03,22,14,37,10.70
2010,03,22,14,38,10.80
2010,03,22,14,39,10.80
2010,03,22,14,40,10.80
2010,03,22,14,41,10.80
2010,03,22,14,42,10.80
2010,03,22,14,43,10.80
2010,03,22,14,44,10.80
2010,03,22,14,45,10.80
2010,03,22,14,46,10.80
2010,03,22,14,47,10.60
2010,03,22,14,48,10.50
2010,03,22,14,49,10.40
2010,03,22,14,50,10.30
2010,03,22,14,51,10.30
2010,03,22,14,52,10.20
2010,03,22,14,53,10.10
2010,03,22,14,54,10.10
2010,03,22,14,55,10.00
2010,03,22,14,56,10.10
2010,03,22,14,57,10.10
2010,03,22,14,58,10.10
2010,03,22,14,59,10.10
2010,03,22,15,00,10.10
2010,03,22,15,01,10.10
2010,03,22,15,02,10.10
2010,03,22,15,03,10.10
2010,03,22,15,04,10.00
2010,03,22,15,05,10.00
2010,03,22,15,06,10.00
2010,03,22,15,07,9.90
2010,03,22,15,08,9.80
2010,03,22,15,09,9.80
2010,03,22,15,10,9.80
2010,03,22,15,11,9.80
2010,03,22,15,12,9.90
2010,03,22,15,13,9.90
2010,03,22,15,14,9.90
2010,03,22,15,15,10.00
2010,03,22,15,16,10.00
2010,03,22,15,17,10.10
2010,03,22,15,18,10.10
2010,03,22,15,19,10.10
2010,03,22,15,20,10.20
2010,03,22,15,21,10.20
2010,03,22,15,22,10.30
2010,03,22,15,23,10.40
2010,03,22,15,24,10.40
2010,03,22,15,25,10.40
2010,03,22,15,26,10.50
2010,03,22,15,27,10.50
2010,03,22,15,28,10.60
2010,03,22,15,29,10.70
2010,03,22,15,30,10.70
2010,03,22,15,31,10.70
2010,03,22,15,32,10.70
2010,03,22,15,33,10.70
2010,03,22,15,34,10.70
2010,03,22,15,35,10.70
2010,03,22,15,36,10.70
2010,03,22,15,37,10.80
2010,03,22,15,38,10.80
2010,03,22,15,39,10.90
2010,03,22,15,40,11.00
2010,03,22,15,41,11.00
2010,03,22,15,42,11.10
2010,03,22,15,43,11.20
2010,03,22,15,44,11.30
2010,03,22,15,45,11.40
2010,03,22,15,46,11.40
2010,03,22,15,47,11.30
2010,03,22,15,48,11.20
2010,03,22,15,49,11.00
2010,03,22,15,50,11.00
2010,03,22,15,51,11.10
2010,03,22,15,52,11.10
2010,03,22,15,53,11.10
2010,03,22,15,54,11.00
2010,03,22,15,55,10.90
2010,03,22,15,56,10.90
2010,03,22,15,57,10.90
2010,03,22,15,58,10.80
2010,03,22,15,59,10.80
2010,03,22,16,00,10.80
2010,03,22,16,01,10.80
2010,03,22,16,02,10.80
2010,03,22,16,03,10.80
2010,03,22,16,04,10.80
2010,03,22,16,05,10.80
2010,03,22,16,06,10.80
2010,03,22,16,07,10.80
2010,03,22,16,08,10.80
2010,03,22,16,09,10.80
2010,03,22,16,10,10.80
2010,03,22,16,11,10.90
2010,03,22,16,12,11.00
2010,03,22,16,13,11.00
2010,03,22,16,14,11.10
2010,03,22,16,15,11.20
2010,03,22,16,16,11.30
2010,03,22,16,17,11.40
2010,03,22,16,18,11.40
2010,03,22,16,19,11.30
2010,03,22,16,20,11.30
2010,03,22,16,21,11.30
2010,03,22,16,22,11.30
2010,03,22,16,23,11.20
2010,03,22,16,24,11.20
2010,03,22,16,25,11.20
2010,03,22,16,26,11.20
2010,03,22,16,27,11.10
2010,03,22,16,28,11.00
2010,03,22,16,29,10.90
2010,03,22,16,30,10.90
2010,03,22,16,31,10.80
2010,03,22,16,32,10.80
2010,03,22,16,33,10.80
2010,03,22,16,35,10.80
2010,03,22,16,36,10.80
2010,03,22,16,37,10.80
2010,03,22,16,38,10.80
2010,03,22,16,39,10.70
2010,03,22,16,40,10.70
2010,03,22,16,41,10.60
2010,03,22,16,42,10.60
2010,03,22,16,43,10.50
2010,03,22,16,44,10.50
2010,03,22,16,45,10.40
2010,03,22,16,46,10.40
2010,03,22,16,47,10.40
2010,03,22,16,48,10.50
2010,03,22,16,49,10.50
2010,03,22,16,50,10.50
2010,03,22,16,51,10.50
2010,03,22,16,52,10.50
2010,03,22,16,53,10.50
2010,03,22,16,54,10.60
2010,03,22,16,55,10.60
2010,03,22,16,56,10.60
2010,03,22,16,57,10.60
2010,03,22,16,58,10.60
2010,03,22,16,59,10.60
2010,03,22,17,00,10.70
2010,03,22,17,01,10.70
2010,03,22,17,02,10.70
2010,03,22,17,03,10.80
2010,03,22,17,04,10.80
2010,03,22,17,05,10.80
2010,03,22,17,06,10.90
2010,03,22,17,07,10.90
2010,03,22,17,08,10.90
2010,03,22,17,09,11.00
2010,03,22,17,10,11.00
2010,03,22,17,11,11.00
2010,03,22,17,12,11.00
2010,03,22,17,13,11.00
2010,03,22,17,14,11.00
2010,03,22,17,15,11.10
2010,03,22,17,16,11.00
2010,03,22,17,17,11.00
2010,03,22,17,18,11.00
2010,03,22,17,19,10.90
2010,03,22,17,20,10.90
2010,03,22,17,21,10.90
2010,03,22,17,22,10.90
2010,03,22,17,23,10.90
2010,03,22,17,24,10.90
2010,03,22,17,25,10.90
2010,03,22,17,26,10.90
2010,03,22,17,27,10.90
2010,03,22,17,28,10.90
2010,03,22,17,29,10.80
2010,03,22,17,30,10.80
2010,03,22,17,31,10.70
2010,03,22,17,32,10.70
2010,03,22,17,33,10.70
2010,03,22,17,34,10.70
2010,03,22,17,35,10.60
2010,03,22,17,36,10.70
2010,03,22,17,37,10.70
2010,03,22,17,38,10.70
2010,03,22,17,39,10.70
2010,03,22,17,40,10.60
2010,03,22,17,41,10.60
2010,03,22,17,42,10.60
2010,03,22,17,43,10.50
2010,03,22,17,44,10.50
2010,03,22,17,45,10.50
2010,03,22,17,46,10.50
2010,03,22,17,47,10.50
2010,03,22,17,48,10.50
2010,03,22,17,49,10.50
2010,03,22,17,50,10.40
2010,03,22,17,51,10.40
2010,03,22,17,52,10.40
2010,03,22,17,53,10.40
2010,03,22,17,54,10.30
2010,03,22,17,55,10.30
2010,03,22,17,56,10.30
2010,03,22,17,57,10.20
2010,03,22,17,58,10.20
2010,03,22,17,59,10.10
2010,03,22,18,00,10.10
2010,03,22,18,01,10.10
2010,03,22,18,02,10.00
2010,03,22,18,03,9.90
2010,03,22,18,04,9.90
2010,03,22,18,05,9.80
2010,03,22,18,06,9.80
2010,03,22,18,07,9.80
2010,03,22,18,08,9.70
2010,03,22,18,09,9.70
2010,03,22,18,10,9.60
2010,03,22,18,11,9.60
2010,03,22,18,12,9.60
2010,03,22,18,13,9.60
2010,03,22,18,14,9.60
2010,03,22,18,15,9.60
2010,03,22,18,16,9.70
2010,03,22,18,17,9.70
2010,03,22,18,18,9.80
2010,03,22,18,19,9.80
2010,03,22,18,20,9.90
2010,03,22,18,21,9.90
2010,03,22,18,22,10.00
2010,03,22,18,23,10.10
2010,03,22,18,24,10.10
2010,03,22,18,25,10.20
2010,03,22,18,26,10.30
2010,03,22,18,27,10.30
2010,03,22,18,28,10.30
2010,03,22,18,29,10.40
2010,03,22,18,30,10.40
2010,03,22,18,31,10.40
2010,03,22,18,32,10.50
2010,03,22,18,33,10.50
2010,03,22,18,34,10.60
2010,03,22,18,35,10.60
2010,03,22,18,36,10.60
2010,03,22,18,37,10.60
2010,03,22,18,38,10.60
2010,03,22,18,39,10.60
2010,03,22,18,40,10.60
2010,03,22,18,41,10.60
2010,03,22,18,42,10.60
2010,03,22,18,43,10.60
2010,03,22,18,44,10.50
2010,03,22,18,45,10.40
2010,03,22,18,46,10.40
2010,03,22,18,47,10.40
2010,03,22,18,48,10.30
2010,03,22,18,49,10.30
2010,03,22,18,50,10.30
2010,03,22,18,51,10.30
2010,03,22,18,52,10.20
2010,03,22,18,53,10.20
2010,03,22,18,54,10.20
2010,03,22,18,55,10.10
2010,03,22,18,56,10.10
2010,03,22,18,57,10.00
2010,03,22,18,58,10.00
2010,03,22,18,59,10.00
2010,03,22,19,00,10.00
2010,03,22,19,01,9.90
2010,03,22,19,02,9.90
2010,03,22,19,03,9.90
2010,03,22,19,04,9.90
2010,03,22,19,05,9.80
2010,03,22,19,06,9.80
2010,03,22,19,07,9.80
2010,03,22,19,08,9.70
2010,03,22,19,09,9.70
2010,03,22,19,10,9.70
2010,03,22,19,11,9.70
2010,03,22,19,12,9.60
2010,03,22,19,13,9.60
2010,03,22,19,14,9.60
2010,03,22,19,15,9.50
2010,03,22,19,16,9.50
2010,03,22,19,17,9.40
2010,03,22,19,18,9.40
2010,03,22,19,19,9.30
2010,03,22,19,20,9.30
2010,03,22,19,21,9.20
2010,03,22,19,22,9.10
2010,03,22,19,23,9.10
2010,03,22,19,24,9.00
2010,03,22,19,25,9.00
2010,03,22,19,26,8.90
2010,03,22,19,27,8.80
2010,03,22,19,28,8.80
2010,03,22,19,29,8.70
2010,03,22,19,30,8.60
2010,03,22,19,31,8.60
2010,03,22,19,32,8.50
2010,03,22,19,33,8.40
2010,03,22,19,34,8.40
2010,03,22,19,35,8.30
2010,03,22,19,36,8.20
2010,03,22,19,37,8.10
2010,03,22,19,38,8.00
2010,03,22,19,39,7.90
2010,03,22,19,40,7.80
2010,03,22,19,41,7.80
2010,03,22,19,42,7.70
2010,03,22,19,43,7.60
2010,03,22,19,44,7.60
2010,03,22,19,45,7.50
2010,03,22,19,46,7.50
2010,03,22,19,47,7.40
2010,03,22,19,48,7.40
2010,03,22,19,49,7.30
2010,03,22,19,50,7.30
2010,03,22,19,51,7.20
2010,03,22,19,52,7.20
2010,03,22,19,53,7.20
2010,03,22,19,54,7.20
2010,03,22,19,55,7.20
2010,03,22,19,56,7.20
2010,03,22,19,57,7.10
2010,03,22,19,58,7.10
2010,03,22,19,59,7.10
2010,03,22,20,00,7.00
2010,03,22,20,01,7.00
2010,03,22,20,02,6.90
2010,03,22,20,03,6.90
2010,03,22,20,04,6.90
2010,03,22,20,05,6.90
2010,03,22,20,06,6.90
2010,03,22,20,07,6.80
2010,03,22,20,08,6.80
2010,03,22,20,09,6.80
2010,03,22,20,10,6.80
2010,03,22,20,11,6.70
2010,03,22,20,12,6.70
2010,03,22,20,13,6.70
2010,03,22,20,14,6.70
2010,03,22,20,15,6.70
2010,03,22,20,16,6.70
2010,03,22,20,17,6.70
2010,03,22,20,18,6.60
2010,03,22,20,19,6.60
2010,03,22,20,20,6.60
2010,03,22,20,21,6.60
2010,03,22,20,22,6.60
2010,03,22,20,23,6.60
2010,03,22,20,24,6.60
2010,03,22,20,25,6.50
2010,03,22,20,26,6.50
2010,03,22,20,27,6.50
2010,03,22,20,28,6.40
2010,03,22,20,29,6.40
2010,03,22,20,30,6.40
2010,03,22,20,31,6.40
2010,03,22,20,32,6.40
2010,03,22,20,33,6.40
2010,03,22,20,34,6.40
2010,03,22,20,35,6.40
2010,03,22,20,36,6.40
2010,03,22,20,37,6.30
2010,03,22,20,38,6.30
2010,03,22,20,39,6.30
2010,03,22,20,40,6.30
2010,03,22,20,41,6.20
2010,03,22,20,42,6.20
2010,03,22,20,43,6.10
2010,03,22,20,44,6.10
2010,03,22,20,45,6.10
2010,03,22,20,46,6.00
2010,03,22,20,47,6.00
2010,03,22,20,48,6.00
2010,03,22,20,49,5.90
2010,03,22,20,50,5.90
2010,03,22,20,51,5.90
2010,03,22,20,52,5.90
2010,03,22,20,53,5.90
2010,03,22,20,54,5.90
2010,03,22,20,55,5.80
2010,03,22,20,56,5.80
2010,03,22,20,57,5.80
2010,03,22,20,58,5.80
2010,03,22,20,59,5.80
2010,03,22,21,00,5.80
2010,03,22,21,01,5.80
2010,03,22,21,02,5.80
2010,03,22,21,03,5.80
2010,03,22,21,04,5.80
2010,03,22,21,05,5.80
2010,03,22,21,06,5.80
2010,03,22,21,07,5.80
2010,03,22,21,08,5.80
2010,03,22,21,09,5.80
2010,03,22,21,10,5.80
2010,03,22,21,11,5.80
2010,03,22,21,12,5.80
2010,03,22,21,13,5.80
2010,03,22,21,14,5.80
2010,03,22,21,15,5.80
2010,03,22,21,16,5.90
2010,03,22,21,17,5.90
2010,03,22,21,18,5.90
2010,03,22,21,19,5.90
2010,03,22,21,20,5.90
2010,03,22,21,21,5.90
2010,03,22,21,22,5.90
2010,03,22,21,23,5.80
2010,03,22,21,24,5.90
2010,03,22,21,25,5.80
2010,03,22,21,26,5.80
2010,03,22,21,27,5.80
2010,03,22,21,28,5.80
2010,03,22,21,29,5.80
2010,03,22,21,30,5.80
2010,03,22,21,31,5.80
2010,03,22,21,32,5.80
2010,03,22,21,33,5.80
2010,03,22,21,34,5.70
2010,03,22,21,35,5.70
2010,03,22,21,36,5.70
2010,03,22,21,37,5.70
2010,03,22,21,38,5.70
2010,03,22,21,39,5.70
2010,03,22,21,40,5.70
2010,03,22,21,41,5.70
2010,03,22,21,42,5.70
2010,03,22,21,43,5.60
2010,03,22,21,44,5.60
2010,03,22,21,45,5.60
2010,03,22,21,46,5.60
2010,03,22,21,47,5.60
2010,03,22,21,48,5.60
2010,03,22,21,49,5.60
2010,03,22,21,50,5.70
2010,03,22,21,51,5.70
2010,03,22,21,52,5.70
2010,03,22,21,53,5.70
2010,03,22,21,54,5.70
2010,03,22,21,55,5.70
2010,03,22,21,56,5.60
2010,03,22,21,57,5.60
2010,03,22,21,58,5.60
2010,03,22,21,59,5.60
2010,03,22,22,00,5.50
2010,03,22,22,01,5.50
2010,03,22,22,02,5.50
2010,03,22,22,03,5.50
2010,03,22,22,04,5.40
2010,03,22,22,05,5.40
2010,03,22,22,06,5.40
2010,03,22,22,07,5.30
2010,03,22,22,08,5.30
2010,03,22,22,09,5.30
2010,03,22,22,10,5.20
2010,03,22,22,11,5.20
2010,03,22,22,12,5.20
2010,03,22,22,13,5.20
2010,03,22,22,14,5.20
2010,03,22,22,15,5.10
2010,03,22,22,16,5.10
2010,03,22,22,17,5.10
2010,03,22,22,18,5.00
2010,03,22,22,19,5.00
2010,03,22,22,20,4.90
2010,03,22,22,21,4.90
2010,03,22,22,22,4.90
2010,03,22,22,23,4.90
2010,03,22,22,24,4.80
2010,03,22,22,25,4.80
2010,03,22,22,26,4.80
2010,03,22,22,27,4.80
2010,03,22,22,28,4.70
2010,03,22,22,29,4.70
2010,03,22,22,30,4.70
2010,03,22,22,31,4.70
2010,03,22,22,32,4.70
2010,03,22,22,33,4.60
2010,03,22,22,34,4.60
2010,03,22,22,35,4.60
2010,03,22,22,36,4.60
2010,03,22,22,37,4.60
2010,03,22,22,38,4.70
2010,03,22,22,39,4.60
2010,03,22,22,40,4.60
2010,03,22,22,41,4.60
2010,03,22,22,42,4.70
2010,03,22,22,43,4.60
2010,03,22,22,44,4.60
2010,03,22,22,45,4.60
2010,03,22,22,46,4.70
2010,03,22,22,47,4.70
2010,03,22,22,48,4.70
2010,03,22,22,49,4.70
2010,03,22,22,50,4.70
2010,03,22,22,51,4.80
2010,03,22,22,52,4.80
2010,03,22,22,53,4.80
2010,03,22,22,54,4.80
2010,03,22,22,55,4.80
2010,03,22,22,56,4.80
2010,03,22,22,57,4.80
2010,03,22,22,58,4.80
2010,03,22,22,59,4.80
2010,03,22,23,00,4.90
2010,03,22,23,01,4.90
2010,03,22,23,02,4.90
2010,03,22,23,03,4.90
2010,03,22,23,04,4.90
2010,03,22,23,05,4.90
2010,03,22,23,06,4.90
2010,03,22,23,07,4.90
2010,03,22,23,08,5.00
2010,03,22,23,09,5.00
2010,03,22,23,10,5.00
2010,03,22,23,11,5.00
2010,03,22,23,12,5.00
2010,03,22,23,13,5.00
2010,03,22,23,14,5.00
2010,03,22,23,15,5.00
2010,03,22,23,16,5.00
2010,03,22,23,17,5.00
2010,03,22,23,18,5.10
2010,03,22,23,19,5.10
2010,03,22,23,20,5.10
2010,03,22,23,21,5.10
2010,03,22,23,22,5.10
2010,03,22,23,23,5.10
2010,03,22,23,24,5.10
2010,03,22,23,25,5.10
2010,03,22,23,26,5.10
2010,03,22,23,27,5.10
2010,03,22,23,28,5.10
2010,03,22,23,29,5.10
2010,03,22,23,30,5.10
2010,03,22,23,31,5.10
2010,03,22,23,32,5.10
2010,03,22,23,33,5.10
2010,03,22,23,34,5.10
2010,03,22,23,35,5.10
2010,03,22,23,36,5.10
2010,03,22,23,37,5.10
2010,03,22,23,38,5.10
2010,03,22,23,39,5.10
2010,03,22,23,40,5.10
2010,03,22,23,41,5.10
2010,03,22,23,42,5.10
2010,03,22,23,43,5.10
2010,03,22,23,44,5.10
2010,03,22,23,45,5.10
2010,03,22,23,46,5.10
2010,03,22,23,47,5.10
2010,03,22,23,48,5.10
2010,03,22,23,49,5.10
2010,03,22,23,50,5.10
2010,03,22,23,51,5.10
2010,03,22,23,52,5.00
2010,03,22,23,53,5.00
2010,03,22,23,54,5.00
2010,03,22,23,55,5.00
2010,03,22,23,56,5.00
2010,03,22,23,57,5.10
2010,03,22,23,58,5.10
2010,03,22,23,59,5.10
